Погода в Елгине

Россия / Кемеровская область (Кузбасс)     55°54′58″N   84°51′27″E
темп.,
°C
ветер,
м/с
пор.,
м/с
влажн.,
%
обл.,
%
осадки,
мм/ч
давл.,
гПа
погр.,
м
23 апреля, пт
пт2301:00−2с38945 0.0 1044158
04:00−3с37966 0.0 1044154
07:00−3ссв37935 0.0 1045179
10:00+2св47705 0.0 1045758
13:00+5св5850100 0.0 10441862
16:00+6св6753100 0.0 10421812
19:00+4ссв486866 0.1 1042289
22:000ссв3108927 0.0 1042190
24 апреля, сб
сб2401:00−1ссв39925 0.0 1041182
04:00−2ссв38925 0.0 1039173
07:00−1с38905 0.0 1038216
10:00+3ссв476998 0.0 1036828
13:00+5ссв4557100 0.0 10341456
16:00+6с4555100 0.0 10331583
19:00+5с3569100 0.1 1032308
22:00+2ссз2281100 0.0 103330
25 апреля, вс
вс2501:000ссз22865 0.0 103220
04:000зсз228374 0.0 103224
07:000зсз228263 0.0 103377
10:00+5зсз22655 0.0 1032612
13:00+7з235382 0.0 10311450
16:00+9з234796 0.0 10301643
19:00+9сз225665 0.1 1030688
22:00+5всв11715 0.0 103110
26 апреля, пн
пн2601:00+3ююв22765 0.0 103117
04:00+2ю22805 0.0 103025
07:00+2ю24815 0.0 103073
10:00+7ю35636 0.0 1030507
13:00+10ю454877 0.0 10281534
16:00+11ю454497 0.0 10261712
19:00+11ю365313 0.0 1025363
22:00+6ю367098 0.0 102498
27 апреля, вт
вт2701:00+6ююв51369100 0.0 1021331
04:00+5ююв61469100 0.0 1018386
07:00+5ю488712 1.8 1017297
10:00+9з58670 0.2 1017793
13:00+12з710459 0.2 10182237
16:00+12з6943100 0.0 10182149
19:00+12з4745100 0.0 1018492
22:00+8юз3460100 0.0 101853